Time,TemperatureF,DewpointF,PressureIn,WindDirection,WindDirectionDegrees,WindSpeedMPH,WindSpeedGustMPH,Humidity,HourlyPrecipIn,Conditions,Clouds,dailyrainin,SoftwareType,DateUTC
2013-03-15 00:26:00,50.6,-99.9,30.15,NE,40,0.0,-999.0,0,-99.99,,,0.00,weatherlink.com 1.10,2013-03-15 07:26:00,
2013-03-15 00:56:00,49.5,-99.9,30.15,ENE,61,3.0,-999.0,0,-99.99,,,0.00,weatherlink.com 1.10,2013-03-15 07:56:00,
2013-03-15 01:11:00,49.6,-99.9,30.14,NE,38,2.0,-999.0,0,-99.99,,,0.00,weatherlink.com 1.10,2013-03-15 08:11:00,
2013-03-15 01:26:00,49.5,-99.9,30.14,NE,40,0.0,-999.0,0,-99.99,,,0.00,weatherlink.com 1.10,2013-03-15 08:26:00,
2013-03-15 01:56:00,49.8,-99.9,30.13,NE,55,3.0,-999.0,0,-99.99,,,0.00,weatherlink.com 1.10,2013-03-15 08:56:00,
2013-03-15 02:26:00,48.5,-99.9,30.15,ENE,60,3.0,-999.0,0,-99.99,,,0.00,weatherlink.com 1.10,2013-03-15 09:26:00,
2013-03-15 02:41:00,48.8,-99.9,30.15,NE,41,4.0,-999.0,0,-99.99,,,0.00,weatherlink.com 1.10,2013-03-15 09:41:00,
2013-03-15 02:56:00,49.1,-99.9,30.14,ENE,66,5.0,-999.0,0,-99.99,,,0.00,weatherlink.com 1.10,2013-03-15 09:56:00,
2013-03-15 03:11:00,49.3,-99.9,30.13,NE,51,2.0,-999.0,0,-99.99,,,0.00,weatherlink.com 1.10,2013-03-15 10:11:00,
2013-03-15 03:26:00,48.8,-99.9,30.13,NE,42,0.0,-999.0,0,-99.99,,,0.00,weatherlink.com 1.10,2013-03-15 10:26:00,
2013-03-15 03:56:00,48.5,-99.9,30.12,NE,42,0.0,-999.0,0,-99.99,,,0.00,weatherlink.com 1.10,2013-03-15 10:56:00,
2013-03-15 04:26:00,48.6,-99.9,30.11,NE,56,6.0,-999.0,0,-99.99,,,0.00,weatherlink.com 1.10,2013-03-15 11:26:00,
2013-03-15 04:41:00,48.8,-99.9,30.12,ENE,62,0.0,-999.0,0,-99.99,,,0.00,weatherlink.com 1.10,2013-03-15 11:41:00,
2013-03-15 04:56:00,48.6,-99.9,30.12,NE,49,3.0,-999.0,0,-99.99,,,0.00,weatherlink.com 1.10,2013-03-15 11:56:00,
2013-03-15 05:11:00,49.9,-99.9,30.11,ENE,61,7.0,-999.0,0,-99.99,,,0.00,weatherlink.com 1.10,2013-03-15 12:11:00,
2013-03-15 05:26:00,49.8,-99.9,30.11,NNE,33,1.0,-999.0,0,-99.99,,,0.00,weatherlink.com 1.10,2013-03-15 12:26:00,
2013-03-15 05:41:00,49.1,-99.9,30.11,NE,50,3.0,-999.0,0,-99.99,,,0.00,weatherlink.com 1.10,2013-03-15 12:41:00,
2013-03-15 05:56:00,48.7,-99.9,30.11,ENE,62,4.0,-999.0,0,-99.99,,,0.00,weatherlink.com 1.10,2013-03-15 12:56:00,
2013-03-15 06:11:00,48.2,-99.9,30.11,NNE,32,8.0,-999.0,0,-99.99,,,0.00,weatherlink.com 1.10,2013-03-15 13:11:00,
2013-03-15 06:26:00,48.7,-99.9,30.11,ENE,71,5.0,-999.0,0,-99.99,,,0.00,weatherlink.com 1.10,2013-03-15 13:26:00,
2013-03-15 06:41:00,47.9,-99.9,30.11,ENE,63,3.0,-999.0,0,-99.99,,,0.00,weatherlink.com 1.10,2013-03-15 13:41:00,
2013-03-15 06:56:00,47.8,-99.9,30.11,NE,53,6.0,-999.0,0,-99.99,,,0.00,weatherlink.com 1.10,2013-03-15 13:56:00,
2013-03-15 07:11:00,47.5,-99.9,30.11,NE,40,4.0,-999.0,0,-99.99,,,0.00,weatherlink.com 1.10,2013-03-15 14:11:00,
2013-03-15 07:26:00,47.3,-99.9,30.10,NE,42,3.0,-999.0,0,-99.99,,,0.00,weatherlink.com 1.10,2013-03-15 14:26:00,
2013-03-15 07:41:00,47.3,-99.9,30.10,ENE,59,8.0,-999.0,0,-99.99,,,0.00,weatherlink.com 1.10,2013-03-15 14:41:00,
2013-03-15 07:56:00,48.4,-99.9,30.10,ENE,63,2.0,-999.0,0,-99.99,,,0.00,weatherlink.com 1.10,2013-03-15 14:56:00,
2013-03-15 08:11:00,49.2,-99.9,30.11,ENE,67,2.0,-999.0,0,-99.99,,,0.00,weatherlink.com 1.10,2013-03-15 15:11:00,
2013-03-15 08:26:00,48.6,-99.9,30.11,NE,38,4.0,-999.0,0,-99.99,,,0.00,weatherlink.com 1.10,2013-03-15 15:26:00,
2013-03-15 08:56:00,52.2,-99.9,30.11,ENE,62,5.0,-999.0,0,-99.99,,,0.00,weatherlink.com 1.10,2013-03-15 15:56:00,
2013-03-15 09:11:00,52.8,-99.9,30.13,ENE,57,0.0,-999.0,0,-99.99,,,0.00,weatherlink.com 1.10,2013-03-15 16:11:00,
2013-03-15 09:26:00,52.5,-99.9,30.12,NE,50,7.0,-999.0,0,-99.99,,,0.00,weatherlink.com 1.10,2013-03-15 16:26:00,
2013-03-15 09:41:00,54.6,-99.9,30.13,ENE,67,0.0,-999.0,0,-99.99,,,0.00,weatherlink.com 1.10,2013-03-15 16:41:00,
2013-03-15 09:56:00,56.2,-99.9,30.14,South,175,2.0,-999.0,0,-99.99,,,0.00,weatherlink.com 1.10,2013-03-15 16:56:00,
2013-03-15 10:11:00,56.8,-99.9,30.12,NE,49,1.0,-999.0,0,-99.99,,,0.00,weatherlink.com 1.10,2013-03-15 17:11:00,
2013-03-15 10:26:00,59.5,-99.9,30.13,NE,49,0.0,-999.0,0,-99.99,,,0.00,weatherlink.com 1.10,2013-03-15 17:26:00,
2013-03-15 10:41:00,59.8,-12.0,30.13,WSW,240,2.0,-999.0,5,-99.99,,,0.00,weatherlink.com 1.10,2013-03-15 17:41:00,
2013-03-15 10:56:00,61.3,-15.0,30.12,WSW,240,0.0,-999.0,4,-99.99,,,0.00,weatherlink.com 1.10,2013-03-15 17:56:00,
2013-03-15 11:11:00,62.7,3.0,30.12,WSW,242,1.0,-999.0,9,-99.99,,,0.00,weatherlink.com 1.10,2013-03-15 18:11:00,
2013-03-15 11:26:00,63.0,13.0,30.12,SW,224,1.0,-999.0,14,-99.99,,,0.00,weatherlink.com 1.10,2013-03-15 18:26:00,
2013-03-15 11:41:00,62.8,-3.0,30.12,WSW,249,1.0,-999.0,7,-99.99,,,0.00,weatherlink.com 1.10,2013-03-15 18:41:00,
2013-03-15 11:56:00,63.9,14.0,30.11,SSW,206,1.0,-999.0,14,-99.99,,,0.00,weatherlink.com 1.10,2013-03-15 18:56:00,
2013-03-15 12:11:00,66.7,28.0,30.11,WSW,238,0.0,-999.0,23,-99.99,,,0.00,weatherlink.com 1.10,2013-03-15 19:11:00,
2013-03-15 12:26:00,67.2,30.0,30.11,SW,231,5.0,-999.0,25,-99.99,,,0.00,weatherlink.com 1.10,2013-03-15 19:26:00,
2013-03-15 12:41:00,67.0,28.0,30.11,WNW,284,6.0,-999.0,23,-99.99,,,0.00,weatherlink.com 1.10,2013-03-15 19:41:00,
2013-03-15 12:56:00,67.2,34.0,30.10,SW,229,4.0,-999.0,29,-99.99,,,0.00,weatherlink.com 1.10,2013-03-15 19:56:00,
2013-03-15 13:11:00,68.9,38.0,30.10,West,261,2.0,-999.0,32,-99.99,,,0.00,weatherlink.com 1.10,2013-03-15 20:11:00,
2013-03-15 13:26:00,67.4,35.0,30.10,West,280,3.0,-999.0,30,-99.99,,,0.00,weatherlink.com 1.10,2013-03-15 20:26:00,
2013-03-15 13:41:00,65.3,28.0,30.11,WNW,296,9.0,-999.0,25,-99.99,,,0.00,weatherlink.com 1.10,2013-03-15 20:41:00,
2013-03-15 13:56:00,63.3,15.0,30.11,West,279,8.0,-999.0,15,-99.99,,,0.00,weatherlink.com 1.10,2013-03-15 20:56:00,
2013-03-15 14:11:00,64.0,15.0,30.11,NW,304,6.0,-999.0,15,-99.99,,,0.00,weatherlink.com 1.10,2013-03-15 21:11:00,
2013-03-15 14:26:00,63.1,8.0,30.11,WNW,288,4.0,-999.0,11,-99.99,,,0.00,weatherlink.com 1.10,2013-03-15 21:26:00,
2013-03-15 14:41:00,62.9,9.0,30.12,WNW,288,5.0,-999.0,12,-99.99,,,0.00,weatherlink.com 1.10,2013-03-15 21:41:00,
2013-03-15 14:56:00,63.6,12.0,30.11,West,261,1.0,-999.0,13,-99.99,,,0.00,weatherlink.com 1.10,2013-03-15 21:56:00,
2013-03-15 15:11:00,63.4,10.0,30.11,WNW,291,11.0,-999.0,12,-99.99,,,0.00,weatherlink.com 1.10,2013-03-15 22:11:00,
2013-03-15 15:26:00,63.4,15.0,30.10,West,273,6.0,-999.0,15,-99.99,,,0.00,weatherlink.com 1.10,2013-03-15 22:26:00,
2013-03-15 15:41:00,62.6,7.0,30.10,West,274,6.0,-999.0,11,-99.99,,,0.00,weatherlink.com 1.10,2013-03-15 22:41:00,
2013-03-15 15:56:00,62.2,2.0,30.09,West,279,2.0,-999.0,9,-99.99,,,0.00,weatherlink.com 1.10,2013-03-15 22:56:00,
2013-03-15 16:11:00,61.3,4.0,30.09,WNW,297,9.0,-999.0,10,-99.99,,,0.00,weatherlink.com 1.10,2013-03-15 23:11:00,
2013-03-15 16:26:00,60.9,-99.9,30.09,West,266,2.0,-999.0,-999,-99.99,,,0.00,weatherlink.com 1.10,2013-03-15 23:26:00,
2013-03-15 16:41:00,61.6,-28.0,30.09,North,355,0.0,-999.0,2,-99.99,,,0.00,weatherlink.com 1.10,2013-03-15 23:41:00,
2013-03-15 16:56:00,62.7,-3.0,30.09,SW,217,2.0,-999.0,7,-99.99,,,0.00,weatherlink.com 1.10,2013-03-15 23:56:00,
2013-03-15 17:11:00,61.0,-11.0,30.09,WNW,290,0.0,-999.0,5,-99.99,,,0.00,weatherlink.com 1.10,2013-03-16 00:11:00,
2013-03-15 17:41:00,60.3,-99.9,30.08,WNW,287,0.0,-999.0,0,-99.99,,,0.00,weatherlink.com 1.10,2013-03-16 00:41:00,
2013-03-15 17:56:00,59.6,-99.9,30.08,West,281,6.0,-999.0,0,-99.99,,,0.00,weatherlink.com 1.10,2013-03-16 00:56:00,
2013-03-15 18:11:00,59.4,-99.9,30.07,NE,49,6.0,-999.0,0,-99.99,,,0.00,weatherlink.com 1.10,2013-03-16 01:11:00,
2013-03-15 18:26:00,59.1,-99.9,30.06,NNE,32,7.0,-999.0,0,-99.99,,,0.00,weatherlink.com 1.10,2013-03-16 01:26:00,
2013-03-15 18:41:00,59.4,-99.9,30.05,NE,41,6.0,-999.0,0,-99.99,,,0.00,weatherlink.com 1.10,2013-03-16 01:41:00,
2013-03-15 18:56:00,59.4,-99.9,30.05,ENE,66,0.0,-999.0,0,-99.99,,,0.00,weatherlink.com 1.10,2013-03-16 01:56:00,
2013-03-15 19:26:00,56.9,-99.9,30.05,NE,36,0.0,-999.0,0,-99.99,,,0.00,weatherlink.com 1.10,2013-03-16 02:26:00,
2013-03-15 19:56:00,55.2,-99.9,30.06,ENE,59,0.0,-999.0,0,-99.99,,,0.00,weatherlink.com 1.10,2013-03-16 02:56:00,
2013-03-15 20:11:00,54.0,-99.9,30.07,ENE,59,0.0,-999.0,0,-99.99,,,0.00,weatherlink.com 1.10,2013-03-16 03:11:00,
2013-03-15 20:26:00,52.9,-99.9,30.07,ENE,59,0.0,-999.0,0,-99.99,,,0.00,weatherlink.com 1.10,2013-03-16 03:26:00,
2013-03-15 20:41:00,52.2,-99.9,30.07,ENE,58,4.0,-999.0,0,-99.99,,,0.00,weatherlink.com 1.10,2013-03-16 03:41:00,
2013-03-15 20:56:00,51.8,-99.9,30.08,ENE,59,4.0,-999.0,0,-99.99,,,0.00,weatherlink.com 1.10,2013-03-16 03:56:00,
2013-03-15 21:11:00,51.9,-99.9,30.09,ENE,59,0.0,-999.0,0,-99.99,,,0.00,weatherlink.com 1.10,2013-03-16 04:11:00,
2013-03-15 21:26:00,51.1,-99.9,30.08,ENE,59,0.0,-999.0,0,-99.99,,,0.00,weatherlink.com 1.10,2013-03-16 04:26:00,
2013-03-15 21:41:00,50.4,-99.9,30.09,ENE,59,0.0,-999.0,0,-99.99,,,0.00,weatherlink.com 1.10,2013-03-16 04:41:00,
2013-03-15 21:56:00,50.4,-99.9,30.09,ENE,66,0.0,-999.0,0,-99.99,,,0.00,weatherlink.com 1.10,2013-03-16 04:56:00,
2013-03-15 22:11:00,50.3,-99.9,30.09,NE,42,3.0,-999.0,0,-99.99,,,0.00,weatherlink.com 1.10,2013-03-16 05:11:00,
2013-03-15 22:26:00,51.0,-99.9,30.09,NE,36,0.0,-999.0,0,-99.99,,,0.00,weatherlink.com 1.10,2013-03-16 05:26:00,
2013-03-15 22:56:00,51.0,-99.9,30.09,NE,34,4.0,-999.0,0,-99.99,,,0.00,weatherlink.com 1.10,2013-03-16 05:56:00,
2013-03-15 23:11:00,51.1,-99.9,30.08,ENE,58,3.0,-999.0,0,-99.99,,,0.00,weatherlink.com 1.10,2013-03-16 06:11:00,
2013-03-15 23:26:00,50.4,-99.9,30.09,NE,55,2.0,-999.0,0,-99.99,,,0.00,weatherlink.com 1.10,2013-03-16 06:26:00,
2013-03-15 23:41:00,51.0,-99.9,30.08,ENE,57,2.0,-999.0,0,-99.99,,,0.00,weatherlink.com 1.10,2013-03-16 06:41:00,
2013-03-15 23:56:00,50.4,-99.9,30.08,NE,55,2.0,-999.0,0,-99.99,,,0.00,weatherlink.com 1.10,2013-03-16 06:56:00,